Find Starlink 31809

NORAD ID: 59743 Int'l Des: 2024-090 Owner: SPXS Country: US Constellation: starlink operational
LEOCIRCULAR

リアルタイム位置

3D地球を読み込み中...

Starlink 31809について

説明を読み込み中...

次回通過

Passes for default location (London). Set your location on the main map for personalized predictions.

高度履歴

Loading altitude history...

軌道要素

1 59743U 24090P 26125.26619330 .00000371 00000-0 23004-4 0 9993
2 59743 42.9985 216.9847 0000767 232.6860 127.3921 15.27581646112173
Epoch: May 5, 2026 • Age: 7 hours

現在のステータス

高度 483.3 km
速度 7.63 km/s
衛星直下点 -5.47°S, 24.53°W
打ち上げ日 May 13, 2024
運用期間 1.9 years
タイプ internet

技術仕様

分類 Payload
質量 730.00 kg
乾燥質量 700.00 kg
総質量 730.00 kg
長さ 0.30 m
直径 4.10 m
スパン 29.00 m
形状 Box + pan
製造者 SPXS
バスタイプ Starlink V2M
フェーズステータス In Orbit
所有者/国 SPXS/US

Most Searched